Погода в Новониколаевке

Россия / Республика Хакасия     53˚11′41″N   91˚17′45″E
темп.,
°C
ветер,
м/с
пор.,
м/с
влажн.,
%
обл.,
%
осадки,
мм/ч
давл.,
гПа
погр.,
м
17 января, вс
вс1701:00−15˚св129498 0.2 102924
04:00−16˚в119098 0.1 102720
07:00−17˚всв118593 0.1 102520
10:00−16˚всв228558 0.0 102220
13:00−12˚с128179 0.0 1018141
16:00−13˚с1184100 0.0 101720
19:00−13˚ю3387100 0.0 102052
22:00−4˚юз102065100 0.0 1021836
18 января, пн
пн1801:00−6˚зюз9197183 0.0 1022641
04:00−7˚зюз514730 0.0 1023269
07:00−12˚юв22732 0.0 102121
10:00−13˚в117871 0.0 101921
13:00−10˚в118382 0.0 101559
16:00−9˚вюв338789 0.0 101248
19:00−3˚юз5156790 0.0 1013485
22:00−4˚юз8177897 0.0 1014704
19 января, вт
вт1901:00−6˚юз8167698 0.0 1017618
04:00−9˚зюз7157667 0.0 1019405
07:00−12˚зюз5108167 0.0 1021225
10:00−11˚зюз61279100 0.0 1023289
13:00−9˚зюз61278100 0.0 1022554
16:00−10˚з41082100 0.0 1021256
19:00−12˚зюз3381100 0.0 102239
22:00−14˚зюз2384100 0.0 102126
20 января, ср
ср2001:00−16˚з1187100 0.0 102120
04:00−15˚з1191100 0.0 102020
07:00−14˚зсз1192100 0.0 102023
10:00−14˚с2289100 0.0 102238
13:00−14˚с238099 0.1 1022152
16:00−16˚с238983 0.0 102446
19:00−22˚сз229391 0.0 102621
22:00−22˚сз1296100 0.0 102620
21 января, чт
чт2101:00−21˚зсз1197100 0.1 102544
04:00−20˚с1198100 0.5 102482
07:00−18˚св0097100 1.4 102278
10:00−16˚в1193100 0.7 1021107
13:00−13˚всв1196100 0.8 101875
16:00−1˚зюз51382100 0.0 1018523
19:00−2˚юз51178100 0.0 1019249
22:00−6˚юз2382100 0.0 101721